This is the latest recevied weather packets stored in our database for station/object N7MLR. If no packets are shown the sender has not sent any weather packets the latest 10 day(s).
| Time | Temp. | Humidity | Pressure | Rain* | Wind** | Luminosity | Snow |
|---|---|---|---|---|---|---|---|
| 1777942850 | 24.44° C | 71% | 1008.9 hPa | 0 mm | - | 6 W/m² | - |
| 1777942546 | 24.44° C | 72% | 1009.2 hPa | 0 mm | - | 9 W/m² | - |
| 1777942244 | 25° C | 71% | 1009 hPa | 0 mm | - | 13 W/m² | - |
| 1777941941 | 25° C | 70% | 1009 hPa | 0 mm | - | 15 W/m² | - |
| 1777941638 | 25° C | 69% | 1008.8 hPa | 0 mm | - | 19 W/m² | - |
| 1777941335 | 25° C | 68% | 1008.8 hPa | 0 mm | - | 21 W/m² | - |
| 1777941032 | 25.56° C | 67% | 1008.7 hPa | 0 mm | - | 26 W/m² | - |
| 1777940727 | 25.56° C | 68% | 1008.6 hPa | 0 mm | - | 29 W/m² | - |
| 1777940426 | 25.56° C | 68% | 1008.8 hPa | 0 mm | - | 35 W/m² | - |
| 1777940123 | 25.56° C | 67% | 1008.8 hPa | 0 mm | - | 38 W/m² | - |
| 1777939820 | 25.56° C | 67% | 1008.8 hPa | 0 mm | - | 40 W/m² | - |
| 1777939517 | 25.56° C | 67% | 1008.7 hPa | 0 mm | - | 35 W/m² | - |
| 1777939215 | 25.56° C | 66% | 1008.8 hPa | 0 mm | - | 34 W/m² | - |
| 1777938912 | 25.56° C | 66% | 1008.7 hPa | 0 mm | - | 39 W/m² | - |
| 1777938608 | 26.11° C | 66% | 1009 hPa | 0 mm | - | 47 W/m² | - |
| 1777938305 | 26.67° C | 64% | 1009.1 hPa | 0 mm | - | 63 W/m² | - |
| 1777938002 | 26.11° C | 65% | 1009.1 hPa | 0 mm | - | 84 W/m² | - |
| 1777937697 | 26.11° C | 65% | 1009.2 hPa | 0 mm | - | 80 W/m² | - |
| 1777937394 | 26.11° C | 65% | 1008.9 hPa | 0 mm | - | 62 W/m² | - |
| 1777937091 | 26.11° C | 64% | 1009.3 hPa | 0 mm | - | 44 W/m² | - |
| 1777936789 | 26.11° C | 64% | 1009.4 hPa | 0 mm | - | 55 W/m² | - |
| 1777936485 | 26.11° C | 64% | 1009.6 hPa | 0 mm | - | 67 W/m² | - |
| 1777936181 | 26.11° C | 65% | 1009.2 hPa | 0 mm | - | 77 W/m² | - |
| 1777935878 | 26.11° C | 64% | 1009.4 hPa | 0 mm | - | 87 W/m² | - |
| 1777935577 | 26.11° C | 65% | 1009.5 hPa | 0 mm | - | 177 W/m² | - |
* Rain latest hour (hover to see other rain measurements)
** Current wind speed in m/s (hover to see current wind gust speed)